WIF773P SLOR-EGYP

Flight info

Callsign WIF773P
Flight time N/A
Altitude 35000
Route IMBAM UM776 NAXET UN525 PONPI/N0467F370 UN525 CBA UW15 SIMES UZ113 IRASU UW15 SIKAR/N0466F390 UW15 DIL/N0462F380 UT103 MIPAT/N0470F390 UT103 MOSKA
Aircraft E170/M-SDE3GILORVW/S

Departure

Time 2026-04-24 22:09
Airport Juan Mendoza International Airport (SLOR)

Arrival

Time N/A
Airport Mount Pleasant Airport / RAF Mount Pleasant (EGYP)
Time Latitude Longitude Altitude Speed Heading
2026-04-24 21:52 -17.96205 -67.07818 12194 ft 0 kts 272°
2026-04-24 22:03 -17.96205 -67.07819 12194 ft 0 kts 271°
2026-04-24 22:03 -17.96207 -67.07820 12194 ft 0 kts 223°
2026-04-24 22:03 -17.96229 -67.07819 12194 ft 5 kts 163°
2026-04-24 22:03 -17.96273 -67.07788 12194 ft 9 kts 129°
2026-04-24 22:04 -17.96296 -67.07709 12194 ft 13 kts 96°
2026-04-24 22:04 -17.96319 -67.07621 12195 ft 12 kts 154°
2026-04-24 22:04 -17.96437 -67.07621 12194 ft 21 kts 184°
2026-04-24 22:04 -17.96616 -67.07629 12195 ft 29 kts 182°
2026-04-24 22:05 -17.96830 -67.07639 12194 ft 31 kts 182°
2026-04-24 22:05 -17.97057 -67.07648 12194 ft 33 kts 181°
2026-04-24 22:05 -17.97264 -67.07658 12193 ft 18 kts 184°
2026-04-24 22:05 -17.97335 -67.07649 12193 ft 6 kts 166°
2026-04-24 22:06 -17.97360 -67.07661 12193 ft 1 kts 262°
2026-04-24 22:06 -17.97356 -67.07664 12193 ft 0 kts 353°
2026-04-24 22:06 -17.97355 -67.07664 12193 ft 0 kts
2026-04-24 22:07 -17.97314 -67.07661 12193 ft 25 kts
2026-04-24 22:07 -17.96943 -67.07644 12194 ft 79 kts
2026-04-24 22:08 -17.96230 -67.07613 12195 ft 125 kts
2026-04-24 22:08 -17.95217 -67.07568 12195 ft 165 kts
2026-04-24 22:08 -17.93977 -67.07519 12297 ft 185 kts
2026-04-24 22:08 -17.92669 -67.07466 12644 ft 191 kts
2026-04-24 22:09 -17.91295 -67.07532 12989 ft 202 kts 338°
2026-04-24 22:09 -17.90260 -67.08556 13208 ft 226 kts 288°
2026-04-24 22:09 -17.90510 -67.10246 13260 ft 259 kts 233°
2026-04-24 22:09 -17.91791 -67.11526 13943 ft 252 kts 205°
2026-04-24 22:10 -17.93373 -67.12203 14679 ft 243 kts 202°
2026-04-24 22:10 -17.94900 -67.12900 15339 ft 237 kts 205°
2026-04-24 22:10 -17.96408 -67.13643 15646 ft 248 kts 206°
2026-04-24 22:10 -17.98030 -67.14478 15691 ft 272 kts 206°
2026-04-24 22:11 -17.99812 -67.15417 15775 ft 296 kts 207°
2026-04-24 22:11 -18.01731 -67.16439 15841 ft 317 kts 207°
2026-04-24 22:11 -18.03741 -67.17515 15887 ft 333 kts 207°
2026-04-24 22:11 -18.05862 -67.18653 15932 ft 349 kts 207°
2026-04-24 22:12 -18.08051 -67.19830 16142 ft 357 kts 207°
2026-04-24 22:12 -18.10276 -67.21026 16584 ft 357 kts 207°
2026-04-24 22:12 -18.12494 -67.22218 17086 ft 355 kts 207°
2026-04-24 22:12 -18.14656 -67.23382 17579 ft 351 kts 207°
2026-04-24 22:13 -18.16828 -67.24551 18009 ft 351 kts 207°
2026-04-24 22:13 -18.19018 -67.25729 18336 ft 354 kts 207°
2026-04-24 22:13 -18.21230 -67.26920 18626 ft 358 kts 207°
2026-04-24 22:13 -18.23448 -67.28115 18932 ft 361 kts 207°
2026-04-24 22:14 -18.25700 -67.29327 19255 ft 363 kts 207°
2026-04-24 22:14 -18.27979 -67.30557 19553 ft 366 kts 207°
2026-04-24 22:14 -18.30246 -67.31779 19799 ft 370 kts 206°
2026-04-24 22:14 -18.32540 -67.33015 20107 ft 373 kts 207°
2026-04-24 22:15 -18.34867 -67.34270 20358 ft 376 kts 207°
2026-04-24 22:15 -18.37208 -67.35533 20659 ft 378 kts 207°
2026-04-24 22:15 -18.39568 -67.36807 20979 ft 380 kts 207°
2026-04-24 22:15 -18.41921 -67.38077 21296 ft 381 kts 206°
2026-04-24 22:16 -18.44283 -67.39353 21571 ft 383 kts 206°
2026-04-24 22:16 -18.46647 -67.40630 21856 ft 384 kts 206°
2026-04-24 22:16 -18.49040 -67.41924 22123 ft 387 kts 206°
2026-04-24 22:16 -18.51440 -67.43220 22376 ft 389 kts 206°
2026-04-24 22:17 -18.53852 -67.44525 22638 ft 391 kts 206°
2026-04-24 22:17 -18.56281 -67.45839 22926 ft 392 kts 206°
2026-04-24 22:17 -18.58721 -67.47159 23197 ft 394 kts 206°
2026-04-24 22:17 -18.61328 -67.48020 23420 ft 394 kts 183°
2026-04-24 22:18 -18.64055 -67.47765 23648 ft 393 kts 163°
2026-04-24 22:18 -18.66647 -67.46941 23932 ft 393 kts 161°
2026-04-24 22:18 -18.69276 -67.46043 24195 ft 395 kts 160°
2026-04-24 22:18 -18.71899 -67.45129 24455 ft 397 kts 160°
2026-04-24 22:19 -18.74533 -67.44206 24704 ft 399 kts 160°
2026-04-24 22:19 -18.77156 -67.43284 24929 ft 401 kts 160°
2026-04-24 22:19 -18.79841 -67.42339 25155 ft 403 kts 160°
2026-04-24 22:19 -18.82517 -67.41396 25383 ft 405 kts 160°
2026-04-24 22:20 -18.85175 -67.40459 25607 ft 407 kts 160°
2026-04-24 22:20 -18.87889 -67.39503 25847 ft 409 kts 160°
2026-04-24 22:20 -18.90586 -67.38552 26079 ft 410 kts 160°
2026-04-24 22:20 -18.93332 -67.37584 26299 ft 412 kts 160°
2026-04-24 22:21 -18.96066 -67.36620 26522 ft 414 kts 160°
2026-04-24 22:21 -18.98815 -67.35649 26733 ft 416 kts 160°
2026-04-24 22:21 -19.01557 -67.34682 26970 ft 416 kts 160°
2026-04-24 22:21 -19.04302 -67.33712 27191 ft 418 kts 160°
2026-04-24 22:22 -19.07089 -67.32728 27396 ft 419 kts 160°
2026-04-24 22:22 -19.09869 -67.31745 27580 ft 421 kts 160°
2026-04-24 22:22 -19.12640 -67.30765 27761 ft 423 kts 160°
2026-04-24 22:22 -19.15455 -67.29771 27930 ft 425 kts 160°
2026-04-24 22:23 -19.18250 -67.28781 28107 ft 426 kts 160°
2026-04-24 22:23 -19.21105 -67.27771 28286 ft 428 kts 160°
2026-04-24 22:23 -19.23915 -67.26776 28450 ft 430 kts 160°
2026-04-24 22:23 -19.26767 -67.25766 28610 ft 432 kts 160°
2026-04-24 22:24 -19.29644 -67.24747 28764 ft 434 kts 160°
2026-04-24 22:24 -19.32517 -67.23729 28970 ft 435 kts 160°
2026-04-24 22:24 -19.35401 -67.22706 29179 ft 435 kts 160°
2026-04-24 22:24 -19.38277 -67.21687 29361 ft 436 kts 160°
2026-04-24 22:25 -19.41151 -67.20667 29529 ft 438 kts 160°
2026-04-24 22:25 -19.44037 -67.19642 29710 ft 439 kts 160°
2026-04-24 22:25 -19.46936 -67.18613 29883 ft 440 kts 160°
2026-04-24 22:25 -19.49848 -67.17578 30051 ft 441 kts 160°
2026-04-24 22:26 -19.52799 -67.16530 30237 ft 442 kts 160°
2026-04-24 22:26 -19.55726 -67.15489 30391 ft 443 kts 160°
2026-04-24 22:26 -19.58625 -67.14459 30529 ft 445 kts 160°
2026-04-24 22:26 -19.61573 -67.13409 30679 ft 446 kts 161°
2026-04-24 22:27 -19.64540 -67.12354 30844 ft 447 kts 161°
2026-04-24 22:27 -19.67473 -67.11309 31008 ft 448 kts 161°
2026-04-24 22:27 -19.70431 -67.10256 31175 ft 449 kts 161°
2026-04-24 22:27 -19.73401 -67.09198 31362 ft 449 kts 161°
2026-04-24 22:28 -19.76369 -67.08140 31519 ft 450 kts 161°
2026-04-24 22:28 -19.79343 -67.07079 31651 ft 451 kts 161°
2026-04-24 22:28 -19.82312 -67.06020 31785 ft 452 kts 161°
2026-04-24 22:28 -19.85302 -67.04953 31912 ft 453 kts 161°
2026-04-24 22:29 -19.91307 -67.02808 32248 ft 454 kts 161°
2026-04-24 22:29 -19.94293 -67.01742 32455 ft 453 kts 161°
2026-04-24 22:29 -19.97313 -67.00662 32631 ft 453 kts 161°
2026-04-24 22:30 -20.00332 -66.99583 32841 ft 452 kts 161°
2026-04-24 22:30 -20.03300 -66.98521 33052 ft 451 kts 161°
2026-04-24 22:30 -20.06287 -66.97452 33295 ft 450 kts 161°
2026-04-24 22:30 -20.09280 -66.96393 33502 ft 450 kts 162°
2026-04-24 22:31 -20.12258 -66.95339 33735 ft 449 kts 162°
2026-04-24 22:31 -20.15229 -66.94287 33936 ft 448 kts 162°
2026-04-24 22:31 -20.18206 -66.93233 34141 ft 447 kts 162°
2026-04-24 22:31 -20.21130 -66.92197 34343 ft 447 kts 162°
2026-04-24 22:32 -20.24091 -66.91148 34540 ft 446 kts 162°
2026-04-24 22:32 -20.27059 -66.90095 34722 ft 446 kts 162°
2026-04-24 22:32 -20.30004 -66.89051 34887 ft 446 kts 162°
2026-04-24 22:32 -20.32929 -66.88013 35027 ft 447 kts 162°
2026-04-24 22:33 -20.35905 -66.86957 35213 ft 446 kts 162°
2026-04-24 22:33 -20.38864 -66.85906 35422 ft 445 kts 162°
2026-04-24 22:33 -20.41802 -66.84862 35611 ft 445 kts 162°
2026-04-24 22:33 -20.44715 -66.83826 35807 ft 444 kts 162°
2026-04-24 22:34 -20.47607 -66.82644 35967 ft 444 kts 158°
2026-04-24 22:34 -20.50439 -66.81364 36098 ft 444 kts 158°
2026-04-24 22:34 -20.53310 -66.80088 36233 ft 445 kts 159°
2026-04-24 22:34 -20.56191 -66.78812 36365 ft 445 kts 159°
2026-04-24 22:35 -20.59046 -66.77550 36503 ft 445 kts 159°
2026-04-24 22:35 -20.61884 -66.76294 36658 ft 445 kts 159°
2026-04-24 22:35 -20.64752 -66.75025 36783 ft 445 kts 159°
2026-04-24 22:35 -20.67638 -66.73747 36899 ft 446 kts 159°
2026-04-24 22:36 -20.70502 -66.72479 37024 ft 446 kts 159°
2026-04-24 22:36 -20.73342 -66.71220 37195 ft 445 kts 159°
2026-04-24 22:36 -20.76230 -66.69941 37343 ft 445 kts 159°
2026-04-24 22:36 -20.79075 -66.68687 37489 ft 444 kts 159°
2026-04-24 22:37 -20.81955 -66.67422 37633 ft 444 kts 159°
2026-04-24 22:37 -20.84825 -66.66161 37769 ft 444 kts 159°
2026-04-24 22:37 -20.87674 -66.64909 37884 ft 444 kts 159°
2026-04-24 22:37 -20.90504 -66.63663 38016 ft 444 kts 159°
2026-04-24 22:38 -20.93382 -66.62398 38139 ft 444 kts 159°
2026-04-24 22:38 -20.96260 -66.61131 38256 ft 444 kts 159°
2026-04-24 22:38 -20.99101 -66.59880 38362 ft 444 kts 159°
2026-04-24 22:38 -21.01944 -66.58627 38473 ft 444 kts 159°
2026-04-24 22:39 -21.07689 -66.56096 38663 ft 445 kts 159°
2026-04-24 22:39 -21.10545 -66.54836 38785 ft 445 kts 159°
2026-04-24 22:39 -21.13413 -66.53571 38921 ft 445 kts 159°
2026-04-24 22:40 -21.16284 -66.52303 39070 ft 444 kts 159°
2026-04-24 22:40 -21.19128 -66.51047 39178 ft 444 kts 160°
2026-04-24 22:40 -21.24865 -66.48512 39392 ft 444 kts 160°
2026-04-24 22:41 -21.30567 -66.45991 39580 ft 445 kts 160°
2026-04-24 22:41 -21.33449 -66.44715 39693 ft 445 kts 160°
2026-04-24 22:41 -21.36300 -66.43453 39799 ft 445 kts 160°
2026-04-24 22:42 -21.39157 -66.42188 39922 ft 445 kts 160°
2026-04-24 22:42 -21.41984 -66.40935 40061 ft 444 kts 160°
2026-04-24 22:42 -21.44866 -66.39658 40187 ft 444 kts 160°
2026-04-24 22:42 -21.47737 -66.38384 40316 ft 444 kts 160°
2026-04-24 22:43 -21.50577 -66.37124 40424 ft 444 kts 160°
2026-04-24 22:43 -21.53442 -66.35853 40533 ft 444 kts 160°
2026-04-24 22:43 -21.56311 -66.34579 40641 ft 444 kts 160°
2026-04-24 22:43 -21.59176 -66.33306 40734 ft 443 kts 160°
2026-04-24 22:44 -21.64883 -66.30769 40919 ft 443 kts 160°
2026-04-24 22:44 -21.70565 -66.28241 41069 ft 444 kts 160°
2026-04-24 22:45 -21.76318 -66.25679 41205 ft 445 kts 160°
2026-04-24 22:45 -21.82010 -66.23155 41391 ft 444 kts 161°
2026-04-24 22:46 -21.84870 -66.21917 41498 ft 443 kts 161°
2026-04-24 22:46 -21.87764 -66.20661 41575 ft 444 kts 161°
2026-04-24 22:46 -21.93459 -66.18189 41696 ft 444 kts 161°
2026-04-24 22:47 -21.99228 -66.15681 41845 ft 445 kts 161°
2026-04-24 22:47 -22.04973 -66.13183 41869 ft 447 kts 161°
2026-04-24 22:48 -22.10771 -66.10658 41884 ft 449 kts 161°
2026-04-24 22:48 -22.16569 -66.08131 41868 ft 452 kts 161°
2026-04-24 22:49 -22.22445 -66.05570 41862 ft 454 kts 161°
2026-04-24 22:49 -22.28305 -66.03011 41868 ft 456 kts 161°
2026-04-24 22:50 -22.34209 -66.00432 41843 ft 459 kts 161°
2026-04-24 22:50 -22.40149 -65.97835 41837 ft 461 kts 161°
2026-04-24 22:51 -22.46115 -65.95224 41831 ft 463 kts 161°
2026-04-24 22:51 -22.52109 -65.92598 41816 ft 466 kts 161°
2026-04-24 22:52 -22.58124 -65.89960 41807 ft 468 kts 161°
2026-04-24 22:52 -22.64170 -65.87307 41796 ft 469 kts 161°
2026-04-24 22:53 -22.70240 -65.84641 41780 ft 471 kts 161°
2026-04-24 22:53 -22.76342 -65.81957 41773 ft 472 kts 161°
2026-04-24 22:54 -22.82416 -65.79283 41766 ft 474 kts 161°
2026-04-24 22:54 -22.88528 -65.76591 41766 ft 475 kts 161°
2026-04-24 22:55 -22.94634 -65.73898 41774 ft 474 kts 161°
2026-04-24 22:55 -23.00751 -65.71197 41772 ft 472 kts 162°
2026-04-24 22:56 -23.06831 -65.68510 41796 ft 473 kts 162°
2026-04-24 22:56 -23.12968 -65.65796 41803 ft 474 kts 162°
2026-04-24 22:57 -23.19076 -65.63092 41822 ft 475 kts 162°
2026-04-24 22:57 -23.25205 -65.60375 41838 ft 476 kts 162°
2026-04-24 22:58 -23.31326 -65.57660 41818 ft 476 kts 162°
2026-04-24 22:58 -23.37471 -65.54932 41804 ft 476 kts 162°
2026-04-24 22:59 -23.43585 -65.52213 41793 ft 476 kts 162°
2026-04-24 23:00 -23.52811 -65.48107 41760 ft 475 kts 162°
2026-04-24 23:00 -23.59075 -65.46257 41720 ft 466 kts 178°
2026-04-24 23:01 -23.65522 -65.45295 41619 ft 465 kts 178°
2026-04-24 23:01 -23.71967 -65.44313 41559 ft 467 kts 178°
2026-04-24 23:02 -23.78382 -65.43333 41487 ft 465 kts 178°
2026-04-24 23:02 -23.84843 -65.42345 41469 ft 467 kts 178°
2026-04-24 23:03 -23.91257 -65.41364 41443 ft 468 kts 178°
2026-04-24 23:03 -23.97695 -65.40378 41420 ft 466 kts 178°
2026-04-24 23:04 -24.04126 -65.39391 41364 ft 467 kts 178°
2026-04-24 23:04 -24.10568 -65.38403 41339 ft 467 kts 178°
2026-04-24 23:05 -24.17010 -65.37413 41312 ft 467 kts 178°
2026-04-24 23:05 -24.23477 -65.36418 41282 ft 466 kts 178°
2026-04-24 23:06 -24.29875 -65.35432 41302 ft 466 kts 178°
2026-04-24 23:06 -24.36322 -65.34440 41246 ft 467 kts 178°
2026-04-24 23:07 -24.42763 -65.33446 41184 ft 466 kts 178°
2026-04-24 23:07 -24.49184 -65.32454 41220 ft 467 kts 178°
2026-04-24 23:08 -24.55651 -65.31454 41197 ft 467 kts 178°
2026-04-24 23:08 -24.62065 -65.30461 41174 ft 466 kts 178°
2026-04-24 23:09 -24.68513 -65.29462 41167 ft 467 kts 178°
2026-04-24 23:09 -24.74936 -65.28466 41149 ft 467 kts 178°
2026-04-24 23:10 -24.81399 -65.27463 41158 ft 467 kts 178°
2026-04-24 23:10 -24.87807 -65.26467 41160 ft 467 kts 178°
2026-04-24 23:11 -24.94251 -65.25465 41147 ft 468 kts 179°
2026-04-24 23:11 -25.00704 -65.24460 41153 ft 469 kts 179°
2026-04-24 23:12 -25.07193 -65.23447 41142 ft 468 kts 179°
2026-04-24 23:12 -25.13659 -65.22439 41148 ft 468 kts 179°
2026-04-24 23:13 -25.20106 -65.21431 41149 ft 467 kts 179°
2026-04-24 23:13 -25.26551 -65.20424 41132 ft 467 kts 179°
2026-04-24 23:14 -25.32969 -65.19418 41142 ft 467 kts 179°
2026-04-24 23:14 -25.39425 -65.18407 41137 ft 467 kts 179°
2026-04-24 23:15 -25.45844 -65.17400 41140 ft 467 kts 179°
2026-04-24 23:15 -25.52287 -65.16388 41163 ft 466 kts 180°
2026-04-24 23:16 -25.58714 -65.15377 41147 ft 467 kts 179°
2026-04-24 23:16 -25.65163 -65.14362 41146 ft 466 kts 180°
2026-04-24 23:17 -25.71558 -65.13354 41139 ft 466 kts 180°
2026-04-24 23:17 -25.78011 -65.12336 41125 ft 466 kts 180°
2026-04-24 23:18 -25.84421 -65.11323 41115 ft 465 kts 180°
2026-04-24 23:18 -25.90810 -65.10313 41107 ft 465 kts 180°
2026-04-24 23:19 -25.97213 -65.09300 41114 ft 464 kts 180°
2026-04-24 23:19 -26.03603 -65.08287 41112 ft 464 kts 180°
2026-04-24 23:20 -26.10017 -65.07270 41115 ft 464 kts 180°
2026-04-24 23:20 -26.16417 -65.06253 41108 ft 465 kts 180°
2026-04-24 23:21 -26.22813 -65.05237 41118 ft 464 kts 181°
2026-04-24 23:21 -26.29185 -65.04222 41137 ft 464 kts 181°
2026-04-24 23:22 -26.35581 -65.03204 41142 ft 464 kts 180°
2026-04-24 23:22 -26.42020 -65.02176 41087 ft 465 kts 181°
2026-04-24 23:23 -26.48406 -65.01156 41069 ft 465 kts 181°
2026-04-24 23:23 -26.54818 -65.00131 41069 ft 464 kts 181°
2026-04-24 23:24 -26.61232 -64.99104 41059 ft 465 kts 181°
2026-04-24 23:24 -26.67614 -64.98082 41035 ft 466 kts 181°
2026-04-24 23:25 -26.74063 -64.97048 41039 ft 466 kts 181°
2026-04-24 23:25 -26.80463 -64.96020 41035 ft 467 kts 181°
2026-04-24 23:26 -26.86920 -64.94981 41024 ft 467 kts 181°
2026-04-24 23:26 -26.93359 -64.93945 41018 ft 467 kts 181°
2026-04-24 23:27 -26.99769 -64.92912 41021 ft 468 kts 181°
2026-04-24 23:27 -27.06227 -64.91870 41013 ft 467 kts 182°
2026-04-24 23:28 -27.12691 -64.90826 41000 ft 468 kts 182°
2026-04-24 23:28 -27.19124 -64.89786 41002 ft 467 kts 182°
2026-04-24 23:29 -27.25573 -64.88741 41012 ft 468 kts 182°
2026-04-24 23:29 -27.32000 -64.87700 41009 ft 468 kts 182°
2026-04-24 23:30 -27.38469 -64.86650 41011 ft 468 kts 182°
2026-04-24 23:30 -27.44885 -64.85607 41020 ft 468 kts 182°
2026-04-24 23:31 -27.51373 -64.84552 41021 ft 469 kts 182°
2026-04-24 23:31 -27.57828 -64.83501 41028 ft 468 kts 182°
2026-04-24 23:32 -27.64234 -64.82456 41028 ft 468 kts 182°
2026-04-24 23:32 -27.70718 -64.81397 41030 ft 468 kts 182°
2026-04-24 23:33 -27.77143 -64.80347 41023 ft 467 kts 183°
2026-04-24 23:33 -27.83576 -64.79295 41035 ft 468 kts 183°
2026-04-24 23:34 -27.90020 -64.78239 41032 ft 468 kts 183°
2026-04-24 23:34 -27.96485 -64.77178 41038 ft 468 kts 183°
2026-04-24 23:35 -28.02969 -64.76113 41037 ft 467 kts 183°
2026-04-24 23:35 -28.09369 -64.75061 41044 ft 467 kts 183°
2026-04-24 23:36 -28.15838 -64.73995 41037 ft 467 kts 184°
2026-04-24 23:36 -28.22275 -64.72935 41029 ft 468 kts 184°
2026-04-24 23:37 -28.28734 -64.71869 41031 ft 467 kts 184°
2026-04-24 23:37 -28.38374 -64.70276 41033 ft 468 kts 184°
2026-04-24 23:38 -28.44830 -64.69207 41028 ft 467 kts 184°
2026-04-24 23:38 -28.51254 -64.68142 41030 ft 468 kts 184°
2026-04-24 23:39 -28.57693 -64.67074 41030 ft 468 kts 184°
2026-04-24 23:39 -28.64124 -64.66005 41027 ft 467 kts 184°
2026-04-24 23:40 -28.70537 -64.64938 41026 ft 466 kts 184°
2026-04-24 23:40 -28.76976 -64.63865 41031 ft 466 kts 184°
2026-04-24 23:41 -28.83377 -64.62799 41023 ft 467 kts 184°
2026-04-24 23:41 -28.89830 -64.61720 41030 ft 466 kts 185°
2026-04-24 23:42 -28.96261 -64.60646 41026 ft 468 kts 185°
2026-04-24 23:42 -29.02681 -64.59571 41024 ft 467 kts 185°
2026-04-24 23:43 -29.09061 -64.58501 41030 ft 465 kts 185°
2026-04-24 23:43 -29.15527 -64.57416 41024 ft 465 kts 185°
2026-04-24 23:44 -29.21934 -64.56340 41025 ft 466 kts 185°
2026-04-24 23:44 -29.28319 -64.55265 41028 ft 466 kts 185°
2026-04-24 23:45 -29.34757 -64.54181 41022 ft 466 kts 185°
2026-04-24 23:45 -29.41152 -64.53102 41018 ft 465 kts 185°
2026-04-24 23:46 -29.47570 -64.52018 41027 ft 466 kts 186°
2026-04-24 23:46 -29.53967 -64.50937 41026 ft 465 kts 185°
2026-04-24 23:47 -29.60381 -64.49850 41025 ft 464 kts 186°
2026-04-24 23:47 -29.66750 -64.48771 41025 ft 465 kts 186°
2026-04-24 23:48 -29.73142 -64.47684 41028 ft 464 kts 186°
2026-04-24 23:48 -29.79558 -64.46594 41039 ft 463 kts 186°
2026-04-24 23:49 -29.85918 -64.45512 41055 ft 463 kts 186°
2026-04-24 23:49 -29.92288 -64.44428 41050 ft 464 kts 186°
2026-04-24 23:50 -29.98651 -64.43340 41051 ft 461 kts 186°
2026-04-24 23:50 -30.04989 -64.42258 41048 ft 461 kts 186°
2026-04-24 23:51 -30.11370 -64.41166 41050 ft 459 kts 186°
2026-04-24 23:51 -30.17673 -64.40086 41062 ft 459 kts 186°
2026-04-24 23:52 -30.23986 -64.39005 41052 ft 460 kts 186°
2026-04-24 23:52 -30.30279 -64.37923 41059 ft 458 kts 186°
2026-04-24 23:53 -30.36626 -64.36831 41065 ft 459 kts 187°
2026-04-24 23:53 -30.42940 -64.35744 41061 ft 460 kts 187°
2026-04-24 23:54 -30.49274 -64.34651 41041 ft 456 kts 186°
2026-04-24 23:54 -30.55566 -64.33565 41061 ft 454 kts 186°
2026-04-24 23:55 -30.61793 -64.32490 41054 ft 455 kts 186°
2026-04-24 23:55 -30.68043 -64.31407 41065 ft 454 kts 186°
2026-04-24 23:56 -30.74291 -64.30325 41053 ft 454 kts 187°
2026-04-24 23:56 -30.80560 -64.29236 41053 ft 455 kts 187°
2026-04-24 23:57 -30.86784 -64.28155 41062 ft 453 kts 187°
2026-04-24 23:57 -30.93033 -64.27068 41053 ft 453 kts 187°
2026-04-24 23:58 -30.99235 -64.25987 41059 ft 451 kts 187°
2026-04-24 23:58 -31.05447 -64.24903 41041 ft 451 kts 187°
2026-04-24 23:59 -31.11664 -64.23817 41038 ft 452 kts 187°
2026-04-24 23:59 -31.17878 -64.22729 41054 ft 452 kts 187°
2026-04-25 00:00 -31.24120 -64.21637 41052 ft 452 kts 187°
2026-04-25 00:00 -31.30331 -64.20137 41059 ft 474 kts 174°
2026-04-25 00:01 -31.33443 -64.18587 41066 ft 491 kts 165°
2026-04-25 00:01 -31.36400 -64.16480 41065 ft 508 kts 155°
2026-04-25 00:01 -31.41988 -64.11276 41048 ft 511 kts 154°
2026-04-25 00:02 -31.47653 -64.06358 41057 ft 511 kts 155°
2026-04-25 00:02 -31.53388 -64.01413 41045 ft 511 kts 155°
2026-04-25 00:03 -31.59110 -63.96476 41066 ft 511 kts 155°
2026-04-25 00:03 -31.64836 -63.91528 41051 ft 513 kts 155°
2026-04-25 00:04 -31.70579 -63.86559 41047 ft 514 kts 154°
2026-04-25 00:04 -31.76345 -63.81560 41050 ft 514 kts 154°
2026-04-25 00:05 -31.82082 -63.76579 41060 ft 514 kts 154°
2026-04-25 00:05 -31.87854 -63.71559 41051 ft 516 kts 154°
2026-04-25 00:06 -31.93611 -63.66544 41053 ft 515 kts 154°
2026-04-25 00:06 -31.99337 -63.61548 41056 ft 514 kts 154°
2026-04-25 00:07 -32.05136 -63.56647 41049 ft 506 kts 161°
2026-04-25 00:07 -32.08217 -63.54782 41073 ft 493 kts 168°
2026-04-25 00:07 -32.11346 -63.53107 41050 ft 494 kts 168°
2026-04-25 00:08 -32.17596 -63.49727 41047 ft 494 kts 167°
2026-04-25 00:08 -32.23827 -63.46348 41045 ft 494 kts 167°
2026-04-25 00:09 -32.30076 -63.42955 41050 ft 494 kts 167°
2026-04-25 00:09 -32.36332 -63.39551 41056 ft 495 kts 167°
2026-04-25 00:10 -32.42556 -63.36161 41049 ft 496 kts 167°
2026-04-25 00:10 -32.48850 -63.32727 41023 ft 497 kts 166°
2026-04-25 00:11 -32.55094 -63.29315 41028 ft 496 kts 166°
2026-04-25 00:11 -32.61394 -63.25867 41027 ft 495 kts 166°
2026-04-25 00:12 -32.67621 -63.22454 41023 ft 495 kts 166°
2026-04-25 00:12 -32.73851 -63.19035 41026 ft 495 kts 166°
2026-04-25 00:13 -32.80095 -63.15601 41025 ft 495 kts 166°
2026-04-25 00:13 -32.86359 -63.12151 41035 ft 494 kts 166°
2026-04-25 00:14 -32.92575 -63.08724 41025 ft 494 kts 166°
2026-04-25 00:14 -32.98785 -63.05293 41030 ft 494 kts 165°
2026-04-25 00:15 -33.05026 -63.01840 41033 ft 494 kts 166°
2026-04-25 00:15 -33.11284 -62.98372 41038 ft 494 kts 165°
2026-04-25 00:16 -33.17476 -62.94936 41035 ft 494 kts 165°
2026-04-25 00:16 -33.23689 -62.91482 41029 ft 494 kts 165°
2026-04-25 00:17 -33.29944 -62.88000 41030 ft 493 kts 165°
2026-04-25 00:17 -33.36130 -62.84550 41033 ft 494 kts 165°
2026-04-25 00:18 -33.42385 -62.81057 41059 ft 494 kts 165°
2026-04-25 00:18 -33.48613 -62.77769 41036 ft 486 kts 170°
2026-04-25 00:19 -33.54965 -62.74846 41051 ft 488 kts 169°
2026-04-25 00:19 -33.61285 -62.71891 41050 ft 488 kts 168°
2026-04-25 00:20 -33.67613 -62.68926 40983 ft 488 kts 168°
2026-04-25 00:20 -33.73918 -62.65966 40996 ft 485 kts 168°
2026-04-25 00:21 -33.80164 -62.62949 41039 ft 489 kts 165°
2026-04-25 00:21 -33.86372 -62.59593 41045 ft 489 kts 165°
2026-04-25 00:22 -33.92575 -62.56261 41043 ft 489 kts 165°
2026-04-25 00:22 -33.98797 -62.52916 41038 ft 490 kts 165°
2026-04-25 00:23 -34.05009 -62.49569 41040 ft 490 kts 165°
2026-04-25 00:23 -34.11266 -62.46194 41041 ft 491 kts 165°
2026-04-25 00:24 -34.17466 -62.42843 41043 ft 491 kts 165°
2026-04-25 00:24 -34.23700 -62.39469 41039 ft 491 kts 165°
2026-04-25 00:25 -34.29943 -62.36085 41041 ft 491 kts 165°
2026-04-25 00:25 -34.36158 -62.32710 41020 ft 490 kts 164°
2026-04-25 00:26 -34.42328 -62.29354 41024 ft 489 kts 164°
2026-04-25 00:26 -34.48562 -62.25958 41026 ft 489 kts 164°
2026-04-25 00:27 -34.54709 -62.22540 41026 ft 490 kts 163°
2026-04-25 00:27 -34.60899 -62.19026 41026 ft 490 kts 163°
2026-04-25 00:28 -34.67070 -62.15519 41025 ft 490 kts 163°
2026-04-25 00:28 -34.73213 -62.12022 41030 ft 489 kts 163°
2026-04-25 00:29 -34.79361 -62.08516 41027 ft 490 kts 163°
2026-04-25 00:29 -34.85529 -62.04994 41027 ft 490 kts 163°
2026-04-25 00:30 -34.91684 -62.01472 41030 ft 490 kts 163°
2026-04-25 00:30 -34.97836 -61.97948 41034 ft 490 kts 163°
2026-04-25 00:31 -35.04004 -61.94407 41036 ft 490 kts 163°
2026-04-25 00:31 -35.10198 -61.90846 41036 ft 491 kts 163°
2026-04-25 00:32 -35.16338 -61.87310 41036 ft 491 kts 163°
2026-04-25 00:32 -35.22517 -61.83745 41038 ft 491 kts 163°
2026-04-25 00:33 -35.28708 -61.80168 41039 ft 491 kts 163°
2026-04-25 00:33 -35.34857 -61.76608 41038 ft 492 kts 162°
2026-04-25 00:34 -35.40636 -61.71871 41053 ft 510 kts 143°
2026-04-25 00:34 -35.45486 -61.65485 41041 ft 516 kts 138°
2026-04-25 00:35 -35.50367 -61.58997 41045 ft 516 kts 139°
2026-04-25 00:35 -35.55215 -61.52571 41049 ft 517 kts 138°
2026-04-25 00:36 -35.60100 -61.46086 41051 ft 517 kts 139°
2026-04-25 00:36 -35.64967 -61.39613 41055 ft 518 kts 138°
2026-04-25 00:37 -35.69837 -61.33123 41038 ft 518 kts 138°
2026-04-25 00:37 -35.74708 -61.26620 41041 ft 518 kts 138°
2026-04-25 00:38 -35.79580 -61.20101 41043 ft 518 kts 137°
2026-04-25 00:38 -35.84462 -61.13557 41048 ft 518 kts 137°
2026-04-25 00:39 -35.89304 -61.07054 41049 ft 518 kts 138°
2026-04-25 00:39 -35.94177 -61.00497 41052 ft 518 kts 137°
2026-04-25 00:40 -35.99004 -60.93989 41053 ft 518 kts 137°
2026-04-25 00:40 -36.03861 -60.87427 41052 ft 519 kts 137°
2026-04-25 00:41 -36.08724 -60.80845 41055 ft 519 kts 137°
2026-04-25 00:41 -36.13588 -60.74249 41055 ft 518 kts 137°
2026-04-25 00:42 -36.18401 -60.67707 41055 ft 519 kts 137°
2026-04-25 00:42 -36.23250 -60.61105 41060 ft 518 kts 137°
2026-04-25 00:43 -36.28101 -60.54487 41060 ft 519 kts 137°
2026-04-25 00:43 -36.32930 -60.47885 41062 ft 519 kts 137°
2026-04-25 00:44 -36.37767 -60.41258 41060 ft 519 kts 137°
2026-04-25 00:44 -36.42587 -60.34643 41065 ft 518 kts 136°
2026-04-25 00:45 -36.47427 -60.27987 41049 ft 518 kts 136°
2026-04-25 00:45 -36.52237 -60.21358 41044 ft 518 kts 136°
2026-04-25 00:46 -36.57035 -60.14732 41050 ft 518 kts 136°
2026-04-25 00:47 -36.64238 -60.04761 41048 ft 519 kts 136°
2026-04-25 00:47 -36.69060 -59.98068 41047 ft 517 kts 136°
2026-04-25 00:48 -36.73862 -59.91391 41049 ft 518 kts 136°
2026-04-25 00:48 -36.78657 -59.84709 41059 ft 519 kts 136°
2026-04-25 00:49 -36.83434 -59.78039 41057 ft 519 kts 136°
2026-04-25 00:49 -36.88248 -59.71304 41059 ft 519 kts 136°
2026-04-25 00:50 -36.93019 -59.64616 41058 ft 519 kts 136°
2026-04-25 00:50 -36.97838 -59.57845 41055 ft 520 kts 136°
2026-04-25 00:51 -37.02610 -59.51127 41061 ft 519 kts 136°
2026-04-25 00:51 -37.07409 -59.44357 41062 ft 518 kts 136°
2026-04-25 00:52 -37.12158 -59.37645 41057 ft 520 kts 136°
2026-04-25 00:52 -37.16991 -59.30932 41040 ft 516 kts 142°
2026-04-25 00:53 -37.22691 -59.25798 41059 ft 499 kts 161°
2026-04-25 00:53 -37.29034 -59.22477 41057 ft 485 kts 173°
2026-04-25 00:53 -37.32306 -59.21645 41064 ft 474 kts 182°
2026-04-25 00:54 -37.35532 -59.21478 41067 ft 462 kts 192°
2026-04-25 00:54 -37.41886 -59.22126 41062 ft 464 kts 189°
2026-04-25 00:55 -37.48366 -59.21994 41056 ft 468 kts 187°
2026-04-25 00:55 -37.54848 -59.21762 41049 ft 468 kts 187°
2026-04-25 00:56 -37.61372 -59.21522 41049 ft 469 kts 187°
2026-04-25 00:56 -37.67891 -59.21280 41049 ft 468 kts 187°
2026-04-25 00:57 -37.74375 -59.21040 41053 ft 468 kts 187°
2026-04-25 00:57 -37.80878 -59.20798 41057 ft 469 kts 186°
2026-04-25 00:58 -37.87377 -59.20556 41050 ft 468 kts 186°
2026-04-25 00:58 -37.93904 -59.20313 41048 ft 469 kts 186°
2026-04-25 00:59 -38.00398 -59.20070 41050 ft 469 kts 186°
2026-04-25 00:59 -38.06898 -59.19826 41050 ft 469 kts 186°
2026-04-25 01:00 -38.13423 -59.19582 41045 ft 469 kts 186°
2026-04-25 01:00 -38.19947 -59.19337 41046 ft 469 kts 186°
2026-04-25 01:01 -38.26439 -59.19093 41045 ft 468 kts 186°
2026-04-25 01:01 -38.32982 -59.18846 41047 ft 469 kts 186°
2026-04-25 01:02 -38.39497 -59.18600 41046 ft 470 kts 186°
2026-04-25 01:02 -38.45983 -59.18354 41048 ft 468 kts 186°
2026-04-25 01:03 -38.52533 -59.18106 41050 ft 469 kts 186°
2026-04-25 01:03 -38.59064 -59.17858 41048 ft 470 kts 186°
2026-04-25 01:04 -38.65588 -59.17610 41049 ft 470 kts 186°
2026-04-25 01:04 -38.72121 -59.17361 41046 ft 471 kts 186°
2026-04-25 01:05 -38.78653 -59.17112 41050 ft 471 kts 186°
2026-04-25 01:05 -38.85177 -59.16854 41050 ft 471 kts 185°
2026-04-25 01:06 -38.91702 -59.16459 41054 ft 472 kts 185°
2026-04-25 01:06 -38.98277 -59.16066 41056 ft 472 kts 185°
2026-04-25 01:07 -39.04822 -59.15675 41057 ft 472 kts 185°
2026-04-25 01:07 -39.11396 -59.15282 41055 ft 472 kts 185°
2026-04-25 01:08 -39.17953 -59.14888 41056 ft 472 kts 185°
2026-04-25 01:08 -39.24475 -59.14497 41054 ft 471 kts 185°
2026-04-25 01:09 -39.31007 -59.14103 41054 ft 472 kts 185°
2026-04-25 01:09 -39.37564 -59.13708 41057 ft 472 kts 185°
2026-04-25 01:10 -39.44119 -59.13312 41060 ft 471 kts 185°
2026-04-25 01:10 -39.50612 -59.12919 41067 ft 470 kts 185°
2026-04-25 01:11 -39.57167 -59.12521 41060 ft 471 kts 185°
2026-04-25 01:11 -39.63696 -59.12125 41064 ft 471 kts 185°
2026-04-25 01:12 -39.70209 -59.11728 41067 ft 470 kts 185°
2026-04-25 01:12 -39.76752 -59.11329 41070 ft 470 kts 185°
2026-04-25 01:13 -39.83288 -59.10930 41069 ft 471 kts 185°
2026-04-25 01:13 -39.89800 -59.10531 41067 ft 471 kts 185°
2026-04-25 01:14 -39.96317 -59.10131 41075 ft 470 kts 185°
2026-04-25 01:14 -40.02857 -59.09729 41067 ft 470 kts 185°
2026-04-25 01:15 -40.09404 -59.09326 41073 ft 471 kts 185°
2026-04-25 01:15 -40.15914 -59.08924 41067 ft 469 kts 185°
2026-04-25 01:16 -40.22428 -59.08522 41064 ft 469 kts 185°
2026-04-25 01:16 -40.28941 -59.08118 41070 ft 470 kts 185°
2026-04-25 01:17 -40.35466 -59.07713 41067 ft 470 kts 185°
2026-04-25 01:17 -40.42017 -59.07306 41070 ft 471 kts 185°
2026-04-25 01:18 -40.48541 -59.06900 41071 ft 470 kts 185°
2026-04-25 01:18 -40.55043 -59.06494 41071 ft 470 kts 185°
2026-04-25 01:19 -40.61549 -59.06087 41069 ft 469 kts 185°
2026-04-25 01:19 -40.68061 -59.05679 41069 ft 469 kts 185°
2026-04-25 01:20 -40.74601 -59.05268 41071 ft 469 kts 185°
2026-04-25 01:20 -40.81112 -59.04858 41071 ft 469 kts 185°
2026-04-25 01:21 -40.87608 -59.04449 41072 ft 468 kts 185°
2026-04-25 01:21 -40.94114 -59.04038 41072 ft 469 kts 185°
2026-04-25 01:22 -41.00585 -59.03628 41069 ft 469 kts 185°
2026-04-25 01:22 -41.07114 -59.03215 41072 ft 470 kts 185°
2026-04-25 01:23 -41.13598 -59.02803 41070 ft 469 kts 185°
2026-04-25 01:23 -41.20093 -59.02556 41067 ft 466 kts 188°
2026-04-25 01:24 -41.26591 -59.02477 41057 ft 466 kts 188°
2026-04-25 01:24 -41.33055 -59.02391 41063 ft 465 kts 188°
2026-04-25 01:25 -41.39550 -59.02304 41066 ft 467 kts 188°
2026-04-25 01:25 -41.46017 -59.02216 41068 ft 466 kts 188°
2026-04-25 01:26 -41.52481 -59.02129 41063 ft 467 kts 188°
2026-04-25 01:26 -41.58990 -59.02040 41070 ft 467 kts 188°
2026-04-25 01:27 -41.65448 -59.01953 41066 ft 466 kts 188°
2026-04-25 01:27 -41.71925 -59.01865 41067 ft 466 kts 188°
2026-04-25 01:28 -41.81625 -59.01733 41069 ft 467 kts 188°
2026-04-25 01:28 -41.88116 -59.01643 41069 ft 466 kts 188°
2026-04-25 01:29 -41.94600 -59.01555 41066 ft 467 kts 188°
2026-04-25 01:29 -42.01099 -59.01465 41064 ft 467 kts 188°
2026-04-25 01:30 -42.07583 -59.01376 41065 ft 467 kts 188°
2026-04-25 01:30 -42.14051 -59.01287 41054 ft 467 kts 188°
2026-04-25 01:31 -42.20546 -59.01197 41052 ft 468 kts 188°
2026-04-25 01:31 -42.27029 -59.01107 41050 ft 468 kts 188°
2026-04-25 01:32 -42.33541 -59.01017 41056 ft 468 kts 188°
2026-04-25 01:32 -42.40050 -59.00926 41054 ft 466 kts 188°
2026-04-25 01:33 -42.46513 -59.00837 41050 ft 467 kts 188°
2026-04-25 01:33 -42.52970 -59.00746 41048 ft 467 kts 188°
2026-04-25 01:34 -42.59483 -59.00655 41047 ft 468 kts 188°
2026-04-25 01:34 -42.65969 -59.00564 41036 ft 469 kts 188°
2026-04-25 01:35 -42.72505 -59.00473 41039 ft 469 kts 188°
2026-04-25 01:35 -42.78976 -59.00381 41044 ft 467 kts 188°
2026-04-25 01:36 -42.85460 -59.00290 41031 ft 466 kts 188°
2026-04-25 01:36 -42.91962 -59.00198 41036 ft 467 kts 188°
2026-04-25 01:37 -42.98416 -59.00106 41032 ft 468 kts 188°
2026-04-25 01:37 -43.04945 -58.99826 41021 ft 470 kts 186°
2026-04-25 01:38 -43.11484 -58.99476 41007 ft 470 kts 186°
2026-04-25 01:38 -43.17989 -58.99131 41015 ft 470 kts 186°
2026-04-25 01:39 -43.24518 -58.98784 41015 ft 469 kts 186°
2026-04-25 01:39 -43.31045 -58.98436 41006 ft 470 kts 186°
2026-04-25 01:40 -43.37566 -58.98087 41013 ft 469 kts 186°
2026-04-25 01:40 -43.44075 -58.97739 41015 ft 470 kts 186°
2026-04-25 01:41 -43.50565 -58.97391 41003 ft 469 kts 186°
2026-04-25 01:41 -43.57069 -58.97042 40990 ft 469 kts 186°
2026-04-25 01:42 -43.63599 -58.96690 41004 ft 469 kts 186°
2026-04-25 01:42 -43.70113 -58.96338 40992 ft 469 kts 186°
2026-04-25 01:43 -43.76625 -58.95986 40998 ft 470 kts 186°
2026-04-25 01:43 -43.83135 -58.95633 40992 ft 470 kts 186°
2026-04-25 01:44 -43.89663 -58.95278 40993 ft 470 kts 186°
2026-04-25 01:44 -43.96205 -58.94922 40980 ft 470 kts 186°
2026-04-25 01:45 -44.02740 -58.94565 40985 ft 471 kts 186°
2026-04-25 01:45 -44.09279 -58.94207 40981 ft 471 kts 186°
2026-04-25 01:46 -44.15800 -58.93850 40976 ft 470 kts 185°
2026-04-25 01:46 -44.22296 -58.93493 40968 ft 469 kts 185°
2026-04-25 01:47 -44.28824 -58.93134 40957 ft 469 kts 185°
2026-04-25 01:47 -44.35339 -58.92775 40960 ft 469 kts 185°
2026-04-25 01:48 -44.41834 -58.92415 40967 ft 469 kts 185°
2026-04-25 01:48 -44.48341 -58.92054 40955 ft 468 kts 185°
2026-04-25 01:49 -44.54870 -58.91692 40951 ft 468 kts 185°
2026-04-25 01:49 -44.61344 -58.91332 40937 ft 468 kts 185°
2026-04-25 01:50 -44.67853 -58.90968 40942 ft 467 kts 185°
2026-04-25 01:50 -44.74327 -58.90607 40941 ft 467 kts 185°
2026-04-25 01:51 -44.80799 -58.90243 40950 ft 467 kts 185°
2026-04-25 01:51 -44.87295 -58.89879 40948 ft 466 kts 185°
2026-04-25 01:52 -44.93726 -58.89516 40950 ft 466 kts 185°
2026-04-25 01:52 -45.00187 -58.89152 40947 ft 466 kts 185°
2026-04-25 01:53 -45.06669 -58.88786 40941 ft 466 kts 185°
2026-04-25 01:53 -45.13142 -58.88419 40937 ft 466 kts 185°
2026-04-25 01:54 -45.19612 -58.88052 40933 ft 466 kts 185°
2026-04-25 01:54 -45.26107 -58.87683 40935 ft 466 kts 184°
2026-04-25 01:55 -45.32548 -58.87315 40928 ft 466 kts 184°
2026-04-25 01:55 -45.39005 -58.86946 40926 ft 465 kts 184°
2026-04-25 01:56 -45.45451 -58.86577 40925 ft 465 kts 184°
2026-04-25 01:56 -45.51933 -58.86205 40920 ft 465 kts 184°
2026-04-25 01:57 -45.61610 -58.85648 40909 ft 465 kts 184°
2026-04-25 01:58 -45.68083 -58.85274 40908 ft 466 kts 184°
2026-04-25 01:58 -45.74515 -58.84902 40898 ft 465 kts 184°
2026-04-25 01:59 -45.81011 -58.84525 40894 ft 465 kts 184°
2026-04-25 01:59 -45.87489 -58.84149 40890 ft 465 kts 184°
2026-04-25 02:00 -45.93950 -58.83772 40890 ft 465 kts 184°
2026-04-25 02:00 -46.00386 -58.83397 40886 ft 465 kts 184°
2026-04-25 02:01 -46.06864 -58.83058 40881 ft 465 kts 184°
2026-04-25 02:01 -46.13273 -58.82720 40872 ft 465 kts 184°
2026-04-25 02:02 -46.19740 -58.82378 40877 ft 464 kts 184°
2026-04-25 02:02 -46.26199 -58.82037 40865 ft 464 kts 184°
2026-04-25 02:03 -46.32594 -58.81697 40874 ft 464 kts 184°
2026-04-25 02:03 -46.39031 -58.81355 40869 ft 464 kts 184°
2026-04-25 02:04 -46.45461 -58.81012 40868 ft 463 kts 184°
2026-04-25 02:04 -46.51914 -58.80667 40857 ft 463 kts 184°
2026-04-25 02:05 -46.58357 -58.80322 40875 ft 463 kts 184°
2026-04-25 02:05 -46.64788 -58.79977 40863 ft 463 kts 184°
2026-04-25 02:06 -46.71179 -58.79633 40858 ft 462 kts 184°
2026-04-25 02:06 -46.77575 -58.79288 40864 ft 462 kts 184°
2026-04-25 02:07 -46.84012 -58.78940 40862 ft 462 kts 184°
2026-04-25 02:07 -46.90427 -58.78593 40854 ft 462 kts 184°
2026-04-25 02:08 -46.96824 -58.78245 40846 ft 462 kts 184°
2026-04-25 02:08 -47.03234 -58.77896 40842 ft 462 kts 184°
2026-04-25 02:09 -47.09638 -58.77546 40842 ft 462 kts 184°
2026-04-25 02:09 -47.16046 -58.77196 40839 ft 462 kts 184°
2026-04-25 02:10 -47.22413 -58.76846 40823 ft 461 kts 184°
2026-04-25 02:10 -47.28828 -58.76494 40825 ft 461 kts 184°
2026-04-25 02:11 -47.35227 -58.76141 40822 ft 461 kts 184°
2026-04-25 02:11 -47.41608 -58.75788 40827 ft 461 kts 184°
2026-04-25 02:12 -47.48000 -58.75434 40818 ft 460 kts 184°
2026-04-25 02:12 -47.54386 -58.75080 40809 ft 460 kts 184°
2026-04-25 02:13 -47.60768 -58.74724 40820 ft 460 kts 184°
2026-04-25 02:13 -47.67153 -58.74368 40814 ft 460 kts 184°
2026-04-25 02:14 -47.73512 -58.74012 40809 ft 460 kts 184°
2026-04-25 02:14 -47.79889 -58.73655 40809 ft 460 kts 184°
2026-04-25 02:15 -47.86257 -58.73297 40804 ft 459 kts 184°
2026-04-25 02:15 -47.92668 -58.72936 40809 ft 459 kts 183°
2026-04-25 02:16 -47.99029 -58.72577 40798 ft 459 kts 183°
2026-04-25 02:16 -48.05380 -58.72217 40802 ft 459 kts 183°
2026-04-25 02:17 -48.11784 -58.71853 40794 ft 459 kts 184°
2026-04-25 02:17 -48.18138 -58.71492 40783 ft 459 kts 183°
2026-04-25 02:18 -48.24522 -58.71127 40782 ft 459 kts 183°
2026-04-25 02:18 -48.30879 -58.70764 40778 ft 459 kts 183°
2026-04-25 02:19 -48.37243 -58.70399 40767 ft 460 kts 183°
2026-04-25 02:19 -48.43636 -58.70032 40762 ft 460 kts 183°
2026-04-25 02:20 -48.49975 -58.69666 40755 ft 460 kts 183°
2026-04-25 02:20 -48.56354 -58.69298 40768 ft 459 kts 183°
2026-04-25 02:21 -48.62727 -58.68929 40760 ft 459 kts 183°
2026-04-25 02:21 -48.69094 -58.68559 40764 ft 459 kts 183°
2026-04-25 02:22 -48.75473 -58.68188 40756 ft 459 kts 183°
2026-04-25 02:22 -48.81844 -58.67816 40748 ft 459 kts 183°
2026-04-25 02:23 -48.88217 -58.67444 40743 ft 460 kts 183°
2026-04-25 02:23 -48.94577 -58.67070 40740 ft 460 kts 183°
2026-04-25 02:24 -49.00972 -58.66673 40734 ft 461 kts 181°
2026-04-25 02:24 -49.07375 -58.66043 40730 ft 461 kts 182°
2026-04-25 02:25 -49.13762 -58.65425 40730 ft 461 kts 182°
2026-04-25 02:25 -49.20166 -58.64805 40713 ft 461 kts 182°
2026-04-25 02:26 -49.26539 -58.64186 40716 ft 461 kts 182°
2026-04-25 02:26 -49.32912 -58.63566 40712 ft 461 kts 182°
2026-04-25 02:27 -49.39299 -58.62942 40704 ft 461 kts 182°
2026-04-25 02:27 -49.45674 -58.62319 40707 ft 461 kts 181°
2026-04-25 02:28 -49.52087 -58.61690 40706 ft 461 kts 182°
2026-04-25 02:28 -49.58450 -58.61064 40694 ft 461 kts 181°
2026-04-25 02:29 -49.64835 -58.60434 40687 ft 461 kts 181°
2026-04-25 02:29 -49.71222 -58.59802 40695 ft 461 kts 182°
2026-04-25 02:30 -49.77609 -58.59169 40681 ft 461 kts 181°
2026-04-25 02:30 -49.84003 -58.58534 40671 ft 461 kts 181°
2026-04-25 02:31 -49.90417 -58.57895 40672 ft 461 kts 181°
2026-04-25 02:31 -49.96772 -58.57259 40669 ft 460 kts 181°
2026-04-25 02:32 -50.03144 -58.56622 40657 ft 460 kts 181°
2026-04-25 02:32 -50.09515 -58.55981 40653 ft 460 kts 181°
2026-04-25 02:33 -50.15907 -58.55337 40649 ft 460 kts 181°
2026-04-25 02:33 -50.22281 -58.54694 40642 ft 460 kts 181°
2026-04-25 02:34 -50.28679 -58.54046 40644 ft 460 kts 181°
2026-04-25 02:34 -50.35051 -58.53399 40629 ft 461 kts 181°
2026-04-25 02:35 -50.41430 -58.52749 40623 ft 461 kts 181°
2026-04-25 02:35 -50.47804 -58.52099 40611 ft 461 kts 181°
2026-04-25 02:36 -50.54223 -58.51442 40619 ft 461 kts 181°
2026-04-25 02:36 -50.60597 -58.50135 40633 ft 466 kts 173°
2026-04-25 02:37 -50.66919 -58.48025 40602 ft 466 kts 173°
2026-04-25 02:37 -50.73247 -58.45916 40603 ft 467 kts 173°
2026-04-25 02:38 -50.79593 -58.43796 40603 ft 467 kts 173°
2026-04-25 02:38 -50.85905 -58.41681 40585 ft 467 kts 173°
2026-04-25 02:39 -50.92288 -58.39537 40578 ft 467 kts 173°
2026-04-25 02:39 -50.98613 -58.37407 40569 ft 467 kts 173°
2026-04-25 02:40 -51.04956 -58.35264 40575 ft 467 kts 173°
2026-04-25 02:40 -51.11288 -58.33119 40566 ft 467 kts 172°
2026-04-25 02:41 -51.17642 -58.30960 40561 ft 467 kts 172°
2026-04-25 02:41 -51.23980 -58.28801 40559 ft 467 kts 172°
2026-04-25 02:42 -51.30303 -58.26641 40557 ft 466 kts 172°
2026-04-25 02:42 -51.36600 -58.24484 40546 ft 467 kts 172°
2026-04-25 02:43 -51.42966 -58.22297 40545 ft 467 kts 172°
2026-04-25 02:43 -51.49283 -58.20120 40544 ft 467 kts 172°
2026-04-25 02:44 -51.55616 -58.17932 40535 ft 467 kts 172°
2026-04-25 02:44 -51.62017 -58.16413 40550 ft 458 kts 185°
2026-04-25 02:45 -51.68169 -58.18055 40542 ft 446 kts 204°
2026-04-25 02:45 -51.73489 -58.22827 40538 ft 434 kts 224°
2026-04-25 02:46 -51.77552 -58.29852 40530 ft 430 kts 228°
2026-04-25 02:46 -51.82407 -58.35523 40525 ft 440 kts 209°
2026-04-25 02:47 -51.88327 -58.38321 40521 ft 451 kts 190°
2026-04-25 02:47 -51.94632 -58.37812 40521 ft 462 kts 171°
2026-04-25 02:48 -52.00616 -58.33986 40517 ft 472 kts 152°
2026-04-25 02:48 -52.05667 -58.27141 40505 ft 480 kts 132°
2026-04-25 02:49 -52.09195 -58.17978 40514 ft 484 kts 113°
2026-04-25 02:49 -52.10820 -58.07484 40522 ft 485 kts 94°
2026-04-25 02:50 -52.10379 -57.96610 40515 ft 483 kts 75°
2026-04-25 02:50 -52.08512 -57.86154 40505 ft 483 kts 72°
2026-04-25 02:51 -52.06585 -57.75687 40504 ft 484 kts 71°
2026-04-25 02:51 -52.04667 -57.65277 40497 ft 484 kts 71°
2026-04-25 02:52 -52.02736 -57.54806 40496 ft 485 kts 72°
2026-04-25 02:52 -52.00819 -57.44411 40492 ft 486 kts 72°
2026-04-25 02:53 -51.99034 -57.33800 40494 ft 488 kts 79°
2026-04-25 02:53 -51.98963 -57.22878 40499 ft 489 kts 99°
2026-04-25 02:54 -52.00964 -57.12455 40510 ft 486 kts 117°
2026-04-25 02:54 -52.03134 -57.02076 40503 ft 487 kts 102°
2026-04-25 02:55 -52.04570 -56.91347 40492 ft 488 kts 102°
2026-04-25 02:55 -52.06014 -56.80607 40492 ft 489 kts 102°
2026-04-25 02:56 -52.07441 -56.69919 40489 ft 489 kts 102°
2026-04-25 02:56 -52.08870 -56.59133 40485 ft 490 kts 102°
2026-04-25 02:57 -52.10294 -56.48311 40491 ft 490 kts 102°
2026-04-25 02:57 -52.11704 -56.37508 40488 ft 491 kts 102°
2026-04-25 02:58 -52.13105 -56.26689 40478 ft 491 kts 101°
2026-04-25 02:58 -52.14505 -56.15794 40469 ft 492 kts 101°
2026-04-25 02:59 -52.15885 -56.04972 40466 ft 492 kts 101°
2026-04-25 02:59 -52.17259 -55.94114 40460 ft 492 kts 101°
2026-04-25 03:00 -52.18627 -55.83219 40455 ft 492 kts 101°
2026-04-25 03:00 -52.19982 -55.72340 40463 ft 492 kts 101°
2026-04-25 03:01 -52.21329 -55.61440 40467 ft 492 kts 101°
2026-04-25 03:01 -52.22670 -55.50496 40479 ft 492 kts 101°
2026-04-25 03:02 -52.23990 -55.39637 40472 ft 493 kts 101°
2026-04-25 03:02 -52.25314 -55.28658 40460 ft 493 kts 100°